Tracking 19792 objects as of 16-Jul-2019
HD Live streaming from Space Station
objects crossing your sky now

OPS 2222

Track OPS 2222 now!
OPS 2222 is classified as:


NORAD ID: 3334
Int'l Code: 1968-063A
Perigee: 32,011.2 km
Apogee: 40,152.4 km
Inclination: 12.1 °
Period: 1,450.8 minutes
Semi major axis: 42452 km
RCS: Unknown
Launch date: August 6, 1968
Source: United States (US)
Launch site: AIR FORCE EASTERN TEST RANGE (AFETR)
aabbcc
Your satellite tracking list
Your tracking list is empty




NASA's NSSDC Master Catalog

Two Line Element Set (TLE):
1  3334U 68063A   19196.58492126 -.00000219  00000-0  00000+0 0  9991
2  3334  12.1006 313.3431 0958843 159.6976 204.5153  0.99252963  1021
Source of the keplerian elements: McCants